Flag for China Weather past 2 weeks in Dalian, Liaoning, China

Now
81 °F

Scattered clouds.


Feels Like: 82 °F
Forecast: 71 / 79 °F
Wind: 1 mph from North

Location: Dalian Airport

Current Time: Aug 30, 2015 at 11:56:46 AM

Latest Report: Aug 30, 2015 at 11:30 AM


Visibility: N/A

Pressure: 29.86 "Hg

Humidity: 54%

Dew point: 63 °F

Location of DalianLocation

Historic Weather in Dalian — Graph

°F

Dalian temperature yesterday

Maximum temperature yesterday: 82 °F (at 11:30 AM)
Minimum temperature yesterday: 72 °F (at 3:00 AM)
Average temperature yesterday: 77 °F

Past Weeks' High & Low Weather Summary

 TemperatureHumidityPressure
High88 °F (Aug 16, 11:30 AM)94% (Aug 16, 2:00 AM)29.92 "Hg (Aug 16, 2:00 AM)
Low68 °F (Aug 21, 4:30 AM)40% (Aug 22, 12:00 PM)29.62 "Hg (Aug 21, 5:30 PM)
Average78 °F72%29.77 "Hg
* Reported Aug 15 10:00 AM — Aug 30 10:30 AM, Dalian, Weather by CustomWeather, © 2015

Note: Actual official high and low records may vary slightly from our data, if they occured in-between our weather recording intervals... More about our weather records

Advertising

Dalian weather history for previous 24 hours

 ConditionsComfort  
Time TempWeatherWind HumidityBarometerVisibility
10:30 AM
Sun, Aug 30
82 °FScattered clouds.3 mph51%29.86 "HgN/A
10:00 AM79 °FScattered clouds.6 mph61%29.89 "HgN/A
9:30 AM79 °FScattered clouds.6 mph58%29.89 "HgN/A
9:00 AM77 °FScattered clouds.6 mph61%29.89 "HgN/A
8:30 AM77 °FScattered clouds.6 mph65%29.89 "HgN/A
8:00 AM75 °FPassing clouds.3 mph69%29.89 "HgN/A
7:30 AM75 °FPassing clouds.6 mph69%29.86 "HgN/A
7:00 AM75 °FPassing clouds.3 mph74%29.86 "HgN/A
6:30 AM73 °FSunny.1 mph78%29.86 "Hg10 mi
6:00 AM72 °FSunny.1 mph78%29.86 "Hg10 mi
5:30 AM70 °FSunny.1 mph83%29.86 "Hg10 mi
5:00 AM70 °FClear.1 mph83%29.83 "Hg10 mi
4:30 AM70 °FClear.No wind83%29.83 "Hg10 mi
4:00 AM70 °FClear.1 mph83%29.83 "Hg10 mi
3:30 AM70 °FClear.1 mph83%29.83 "Hg10 mi
3:00 AM72 °FClear.1 mph78%29.83 "Hg10 mi
2:30 AM72 °FClear.1 mph78%29.83 "Hg10 mi
2:00 AM72 °FClear.1 mph78%29.83 "Hg10 mi
1:30 AM72 °FClear.1 mph78%29.83 "Hg10 mi
1:00 AM73 °FClear.1 mph74%29.83 "Hg10 mi
12:30 AM73 °FPassing clouds.3 mph69%29.83 "HgN/A
12:00 AM73 °FPassing clouds.3 mph74%29.83 "HgN/A
11:30 PM
Sat, Aug 29
73 °FPassing clouds.3 mph74%29.83 "HgN/A
11:00 PM75 °FPassing clouds.3 mph69%29.83 "HgN/A
10:30 PM75 °FClear.6 mph74%29.83 "Hg10 mi
10:00 PM75 °FPassing clouds.6 mph74%29.83 "HgN/A
9:30 PM75 °FClear.8 mph74%29.83 "Hg10 mi
9:00 PM75 °FClear.6 mph74%29.83 "Hg10 mi
8:30 PM75 °FClear.6 mph74%29.83 "Hg10 mi
8:00 PM75 °FClear.6 mph74%29.80 "Hg10 mi
7:30 PM77 °FPassing clouds.6 mph65%29.80 "HgN/A
7:00 PM77 °FPassing clouds.6 mph65%29.77 "HgN/A
6:00 PM79 °FPassing clouds.8 mph58%29.77 "HgN/A
5:30 PM79 °FPassing clouds.8 mph58%29.77 "HgN/A
5:00 PM79 °FPassing clouds.8 mph61%29.77 "HgN/A
4:30 PM79 °FPassing clouds.10 mph61%29.77 "HgN/A
4:00 PM81 °FPassing clouds.10 mph58%29.77 "HgN/A
3:30 PM81 °FPassing clouds.10 mph54%29.77 "HgN/A
3:00 PM82 °FPassing clouds.10 mph55%29.77 "HgN/A
2:00 PM82 °FPassing clouds.10 mph51%29.77 "HgN/A
1:30 PM82 °FPassing clouds.10 mph51%29.80 "HgN/A
1:00 PM82 °FPassing clouds.10 mph51%29.80 "HgN/A
12:30 PM82 °FPassing clouds.8 mph51%29.80 "HgN/A
12:00 PM82 °FPassing clouds.8 mph51%29.80 "HgN/A
11:30 AM82 °FSunny.6 mph51%29.80 "Hg10 mi
11:00 AM81 °FPassing clouds.6 mph51%29.80 "HgN/A
Weather by CustomWeather, © 2015

See weather overviewHow to use our weather pages